| time (UTC) | temp F | wind direction | speed MPH | gust MPH | rain 1hr in | rain 24hr in | rain mn in | humidity % | barometer mb |
| 20260506014003 | 50 | 213 | 3.0 | 12.0 | 0.00 | 0.07 | 0.04 | 85 | 1007.4 |
| 20260506013525 | 50 | 225 | 3.0 | 5.0 | 0.00 | 0.08 | 0.04 | 85 | 1007.3 |
| 20260506013004 | 50 | 252 | 3.0 | 5.0 | 0.00 | 0.08 | 0.04 | 85 | 1007.3 |
| 20260506012525 | 50 | 306 | 2.0 | 7.0 | 0.00 | 0.08 | 0.04 | 85 | 1007.3 |
| 20260506012004 | 50 | 342 | 1.0 | 4.0 | 0.00 | 0.08 | 0.04 | 85 | 1007.2 |
| 20260506011504 | 50 | 342 | 2.0 | 4.0 | 0.00 | 0.08 | 0.04 | 85 | 1007.1 |
| 20260506011024 | 50 | 342 | 2.0 | 4.0 | 0.00 | 0.08 | 0.04 | 84 | 1007.1 |
| 20260506010504 | 50 | 342 | 1.0 | 4.0 | 0.00 | 0.08 | 0.04 | 84 | 1006.9 |
| 20260506010004 | 50 | 342 | 1.0 | 3.0 | 0.00 | 0.08 | 0.04 | 84 | 1006.9 |
| 20260506005504 | 50 | 341 | 1.0 | 4.0 | 0.00 | 0.08 | 0.04 | 84 | 1006.9 |
| 20260506005004 | 50 | 341 | 1.0 | 3.0 | 0.00 | 0.08 | 0.04 | 84 | 1006.6 |
| 20260506004504 | 50 | 341 | 1.0 | 4.0 | 0.00 | 0.08 | 0.04 | 84 | 1006.7 |
| 20260506004004 | 50 | 341 | 2.0 | 4.0 | 0.00 | 0.08 | 0.04 | 84 | 1006.7 |
| 20260506003504 | 50 | 341 | 1.0 | 4.0 | 0.00 | 0.08 | 0.04 | 83 | 1006.6 |
| 20260506003003 | 50 | 340 | 2.0 | 4.0 | 0.00 | 0.08 | 0.04 | 83 | 1006.6 |
| 20260506002504 | 50 | 340 | 2.0 | 5.0 | 0.00 | 0.08 | 0.04 | 83 | 1006.5 |
| 20260506002004 | 50 | 340 | 1.0 | 5.0 | 0.00 | 0.08 | 0.04 | 83 | 1006.5 |
| 20260506001504 | 50 | 0 | 0.0 | 0.0 | 0.00 | 0.08 | 0.04 | 83 | 1006.4 |
| 20260506001004 | 50 | 0 | 0.0 | 0.0 | 0.00 | 0.08 | 0.04 | 83 | 1006.4 |
| 20260506000504 | 50 | 0 | 0.0 | 0.0 | 0.00 | 0.08 | 0.04 | 83 | 1006.2 |
| 20260506000004 | 51 | 0 | 0.0 | 0.0 | 0.00 | 0.08 | 0.04 | 82 | 1006.4 |
| 20260505235503 | 51 | 0 | 0.0 | 0.0 | 0.00 | 0.08 | 0.04 | 82 | 1006.3 |
| 20260505235003 | 51 | 0 | 0.0 | 0.0 | 0.00 | 0.08 | 0.04 | 82 | 1006.4 |
| 20260505234504 | 51 | 0 | 0.0 | 0.0 | 0.00 | 0.08 | 0.04 | 82 | 1006.1 |
| 20260505234004 | 51 | 0 | 0.0 | 0.0 | 0.00 | 0.08 | 0.04 | 82 | 1006.2 |
| 20260505233525 | 51 | 0 | 0.0 | 0.0 | 0.00 | 0.08 | 0.04 | 82 | 1006.3 |
| 20260505233004 | 51 | 0 | 0.0 | 0.0 | 0.00 | 0.08 | 0.04 | 81 | 1006.2 |
| 20260505232503 | 51 | 0 | 0.0 | 0.0 | 0.00 | 0.08 | 0.04 | 81 | 1006.3 |
| 20260505232025 | 51 | 0 | 0.0 | 0.0 | 0.00 | 0.08 | 0.04 | 81 | 1006.3 |
| 20260505231504 | 51 | 336 | 0.0 | 0.0 | 0.00 | 0.08 | 0.04 | 81 | 1006.4 |
| 20260505231004 | 51 | 336 | 0.0 | 3.0 | 0.00 | 0.08 | 0.04 | 81 | 1006.4 |
| 20260505230525 | 51 | 336 | 0.0 | 3.0 | 0.00 | 0.08 | 0.04 | 81 | 1006.4 |
| 20260505230004 | 51 | 336 | 1.0 | 0.0 | 0.00 | 0.08 | 0.04 | 81 | 1006.4 |
| 20260505225525 | 51 | 336 | 1.0 | 5.0 | 0.00 | 0.08 | 0.04 | 81 | 1006.5 |
| 20260505225024 | 51 | 336 | 1.0 | 3.0 | 0.00 | 0.08 | 0.04 | 81 | 1006.4 |
| 20260505224503 | 51 | 336 | 1.0 | 3.0 | 0.00 | 0.08 | 0.04 | 82 | 1006.5 |
| 20260505224003 | 51 | 336 | 1.0 | 4.0 | 0.00 | 0.08 | 0.04 | 81 | 1006.5 |
| 20260505223504 | 51 | 336 | 0.0 | 3.0 | 0.00 | 0.08 | 0.04 | 82 | 1006.4 |
| 20260505223003 | 51 | 336 | 0.0 | 3.0 | 0.00 | 0.08 | 0.04 | 82 | 1006.5 |
| 20260505222503 | 51 | 336 | 0.0 | 0.0 | 0.00 | 0.08 | 0.04 | 82 | 1006.5 |
| 20260505222003 | 51 | 336 | 0.0 | 3.0 | 0.00 | 0.08 | 0.04 | 82 | 1006.4 |
| 20260505221503 | 51 | 336 | 0.0 | 3.0 | 0.00 | 0.08 | 0.04 | 82 | 1006.5 |
| 20260505221003 | 51 | 336 | 0.0 | 1.0 | 0.00 | 0.08 | 0.04 | 83 | 1006.6 |
| 20260505220504 | 51 | 336 | 0.0 | 0.0 | 0.00 | 0.08 | 0.04 | 83 | 1006.6 |
| 20260505220024 | 50 | 336 | 0.0 | 4.0 | 0.00 | 0.08 | 0.04 | 83 | 1006.6 |
| 20260505215504 | 50 | 0 | 0.0 | 1.0 | 0.00 | 0.08 | 0.04 | 83 | 1006.6 |
| 20260505215003 | 50 | 336 | 0.0 | 0.0 | 0.00 | 0.08 | 0.04 | 83 | 1006.6 |
| 20260505214504 | 50 | 336 | 0.0 | 3.0 | 0.00 | 0.08 | 0.04 | 83 | 1006.6 |
| 20260505214004 | 50 | 336 | 0.0 | 3.0 | 0.00 | 0.08 | 0.04 | 83 | 1006.6 |
| 20260505213503 | 50 | 336 | 0.0 | 0.0 | 0.00 | 0.08 | 0.04 | 83 | 1006.6 |
| 20260505213003 | 50 | 336 | 1.0 | 1.0 | 0.00 | 0.08 | 0.04 | 83 | 1006.7 |
| 20260505212503 | 50 | 336 | 1.0 | 4.0 | 0.00 | 0.08 | 0.04 | 83 | 1006.8 |
| 20260505212025 | 50 | 336 | 1.0 | 4.0 | 0.00 | 0.08 | 0.04 | 83 | 1006.8 |
| 20260505211503 | 50 | 336 | 0.0 | 1.0 | 0.00 | 0.08 | 0.04 | 83 | 1006.7 |
| 20260505211003 | 50 | 336 | 1.0 | 3.0 | 0.00 | 0.08 | 0.04 | 83 | 1006.6 |
| 20260505210503 | 50 | 336 | 1.0 | 4.0 | 0.00 | 0.08 | 0.04 | 83 | 1006.7 |
| 20260505210003 | 50 | 336 | 0.0 | 4.0 | 0.00 | 0.08 | 0.04 | 83 | 1006.7 |
| 20260505205503 | 50 | 336 | 0.0 | 3.0 | 0.00 | 0.08 | 0.04 | 83 | 1006.7 |
| 20260505205003 | 50 | 335 | 1.0 | 3.0 | 0.00 | 0.08 | 0.04 | 83 | 1006.7 |
| 20260505204503 | 50 | 334 | 1.0 | 5.0 | 0.00 | 0.08 | 0.04 | 83 | 1006.7 |
| 20260505204003 | 50 | 333 | 1.0 | 5.0 | 0.00 | 0.08 | 0.04 | 83 | 1006.7 |
| 20260505203504 | 50 | 332 | 1.0 | 3.0 | 0.00 | 0.08 | 0.04 | 83 | 1006.7 |
| 20260505203004 | 50 | 331 | 1.0 | 5.0 | 0.00 | 0.08 | 0.04 | 83 | 1006.8 |
| 20260505202504 | 50 | 330 | 2.0 | 4.0 | 0.00 | 0.08 | 0.04 | 83 | 1006.8 |
| 20260505202003 | 50 | 331 | 2.0 | 8.0 | 0.00 | 0.08 | 0.04 | 82 | 1006.9 |
| 20260505201504 | 50 | 331 | 2.0 | 5.0 | 0.00 | 0.08 | 0.04 | 82 | 1006.9 |
| 20260505201024 | 50 | 331 | 2.0 | 7.0 | 0.00 | 0.08 | 0.04 | 82 | 1007.0 |
| 20260505200503 | 50 | 331 | 1.0 | 4.0 | 0.00 | 0.08 | 0.04 | 82 | 1006.9 |
| 20260505200004 | 50 | 332 | 1.0 | 4.0 | 0.00 | 0.08 | 0.04 | 82 | 1006.8 |
| 20260505195503 | 50 | 332 | 1.0 | 7.0 | 0.01 | 0.08 | 0.04 | 82 | 1006.9 |
| 20260505195004 | 50 | 332 | 1.0 | 4.0 | 0.01 | 0.08 | 0.04 | 82 | 1006.9 |
| 20260505194503 | 50 | 332 | 1.0 | 5.0 | 0.02 | 0.08 | 0.04 | 82 | 1006.8 |
| 20260505194003 | 50 | 332 | 1.0 | 4.0 | 0.02 | 0.08 | 0.04 | 81 | 1006.7 |
| 20260505193503 | 51 | 332 | 1.0 | 4.0 | 0.02 | 0.08 | 0.04 | 81 | 1006.7 |
| 20260505193003 | 51 | 336 | 2.0 | 4.0 | 0.02 | 0.08 | 0.04 | 80 | 1006.6 |
| 20260505192503 | 51 | 343 | 2.0 | 7.0 | 0.03 | 0.08 | 0.04 | 80 | 1006.4 |
| 20260505192003 | 51 | 351 | 1.0 | 5.0 | 0.03 | 0.08 | 0.04 | 80 | 1006.6 |
| 20260505191503 | 51 | 352 | 1.0 | 5.0 | 0.03 | 0.08 | 0.04 | 79 | 1006.4 |
| 20260505191004 | 51 | 354 | 0.0 | 5.0 | 0.03 | 0.08 | 0.04 | 79 | 1006.5 |
| 20260505190503 | 51 | 360 | 0.0 | 0.0 | 0.04 | 0.08 | 0.04 | 77 | 1006.3 |
| 20260505190003 | 52 | 359 | 1.0 | 3.0 | 0.04 | 0.08 | 0.04 | 77 | 1006.3 |
| 20260505185503 | 52 | 356 | 1.0 | 4.0 | 0.03 | 0.07 | 0.03 | 75 | 1006.4 |
| 20260505185003 | 52 | 351 | 1.0 | 5.0 | 0.03 | 0.07 | 0.03 | 74 | 1006.5 |
| 20260505184503 | 52 | 351 | 1.0 | 4.0 | 0.02 | 0.06 | 0.02 | 73 | 1006.5 |
| 20260505184003 | 53 | 351 | 1.0 | 4.0 | 0.02 | 0.06 | 0.02 | 73 | 1006.4 |
| 20260505183503 | 53 | 351 | 0.0 | 3.0 | 0.02 | 0.06 | 0.02 | 72 | 1006.5 |
| 20260505183003 | 53 | 351 | 0.0 | 1.0 | 0.02 | 0.06 | 0.02 | 71 | 1006.3 |
| 20260505182503 | 54 | 351 | 0.0 | 1.0 | 0.01 | 0.05 | 0.01 | 71 | 1006.4 |
| 20260505182003 | 54 | 351 | 1.0 | 3.0 | 0.01 | 0.05 | 0.01 | 70 | 1006.4 |
| 20260505181524 | 54 | 351 | 1.0 | 4.0 | 0.01 | 0.05 | 0.01 | 70 | 1006.5 |
| 20260505181003 | 54 | 351 | 1.0 | 4.0 | 0.01 | 0.05 | 0.01 | 70 | 1006.2 |
| 20260505180503 | 55 | 351 | 1.0 | 3.0 | 0.00 | 0.04 | 0.00 | 69 | 1006.2 |
| 20260505180004 | 55 | 350 | 1.0 | 4.0 | 0.00 | 0.04 | 0.00 | 69 | 1006.1 |
| 20260505175524 | 55 | 350 | 2.0 | 7.0 | 0.00 | 0.04 | 0.00 | 69 | 1006.0 |
| 20260505175003 | 55 | 348 | 2.0 | 5.0 | 0.00 | 0.04 | 0.00 | 68 | 1006.1 |
| 20260505174503 | 56 | 340 | 2.0 | 7.0 | 0.00 | 0.04 | 0.00 | 67 | 1005.7 |
| 20260505174003 | 56 | 331 | 2.0 | 8.0 | 0.00 | 0.04 | 0.00 | 67 | 1006.1 |
| 20260505173503 | 56 | 332 | 3.0 | 8.0 | 0.00 | 0.04 | 0.00 | 64 | 1006.0 |
| 20260505173003 | 56 | 350 | 3.0 | 7.0 | 0.00 | 0.04 | 0.00 | 63 | 1006.1 |
| 20260505172504 | 57 | 360 | 4.0 | 11.0 | 0.00 | 0.04 | 0.00 | 62 | 1006.0 |
| 20260505172004 | 57 | 360 | 3.0 | 11.0 | 0.00 | 0.04 | 0.00 | 63 | 1005.9 |
| 20260505171503 | 57 | 360 | 3.0 | 7.0 | 0.00 | 0.04 | 0.00 | 63 | 1005.9 |
| 20260505171004 | 57 | 360 | 3.0 | 8.0 | 0.00 | 0.04 | 0.00 | 63 | 1005.6 |
| 20260505170524 | 57 | 360 | 3.0 | 7.0 | 0.00 | 0.04 | 0.00 | 64 | 1005.3 |
| 20260505170003 | 57 | 360 | 4.0 | 7.0 | 0.00 | 0.04 | 0.00 | 63 | 1005.3 |
| 20260505165503 | 57 | 360 | 4.0 | 11.0 | 0.00 | 0.04 | 0.00 | 64 | 1005.2 |
| 20260505165003 | 57 | 354 | 4.0 | 11.0 | 0.00 | 0.04 | 0.00 | 64 | 1005.3 |
| 20260505164503 | 57 | 351 | 3.0 | 8.0 | 0.00 | 0.04 | 0.00 | 64 | 1005.1 |
| 20260505164026 | 57 | 359 | 3.0 | 7.0 | 0.00 | 0.04 | 0.00 | 66 | 1005.0 |
| 20260505163505 | 57 | 339 | 3.0 | 9.0 | 0.00 | 0.04 | 0.00 | 66 | 1005.2 |
| 20260505163026 | 57 | 328 | 3.0 | 11.0 | 0.00 | 0.04 | 0.00 | 67 | 1005.2 |
| 20260505162526 | 57 | 332 | 2.0 | 8.0 | 0.00 | 0.04 | 0.00 | 67 | 1005.2 |
| 20260505162005 | 57 | 358 | 1.0 | 1.0 | 0.00 | 0.04 | 0.00 | 67 | 1005.0 |
| 20260505161505 | 57 | 360 | 2.0 | 5.0 | 0.00 | 0.04 | 0.00 | 67 | 1004.9 |
| 20260505161005 | 57 | 360 | 3.0 | 5.0 | 0.00 | 0.04 | 0.00 | 68 | 1005.1 |
| 20260505160526 | 58 | 360 | 4.0 | 11.0 | 0.00 | 0.04 | 0.00 | 68 | 1005.2 |
| 20260505153026 | 57 | 360 | 5.0 | 13.0 | 0.00 | 0.04 | 0.00 | 67 | 1005.2 |
| 20260505152505 | 58 | 360 | 4.0 | 12.0 | 0.00 | 0.04 | 0.00 | 67 | 1005.3 |
| 20260505152005 | 58 | 360 | 4.0 | 13.0 | 0.00 | 0.04 | 0.00 | 68 | 1005.1 |
| 20260505151506 | 58 | 350 | 4.0 | 11.0 | 0.00 | 0.04 | 0.00 | 67 | 1005.1 |
| 20260505151005 | 58 | 335 | 5.0 | 12.0 | 0.00 | 0.04 | 0.00 | 67 | 1005.1 |
| 20260505150526 | 59 | 329 | 4.0 | 13.0 | 0.00 | 0.04 | 0.00 | 67 | 1004.7 |
| 20260505140505 | 56 | 360 | 4.0 | 8.0 | 0.00 | 0.04 | 0.00 | 72 | 1003.7 |
| 20260505125005 | 50 | 358 | 3.0 | 7.0 | 0.00 | 0.04 | 0.00 | 81 | 1002.8 |
| 20260505124526 | 49 | 358 | 3.0 | 7.0 | 0.00 | 0.04 | 0.00 | 81 | 1002.9 |
| 20260505124005 | 49 | 350 | 4.0 | 11.0 | 0.00 | 0.04 | 0.00 | 81 | 1002.7 |
| 20260505123504 | 49 | 339 | 4.0 | 11.0 | 0.00 | 0.04 | 0.00 | 81 | 1002.7 |
| 20260505123005 | 49 | 345 | 3.0 | 8.0 | 0.00 | 0.04 | 0.00 | 81 | 1002.5 |
| 20260505122505 | 49 | 360 | 4.0 | 8.0 | 0.00 | 0.04 | 0.00 | 81 | 1002.2 |
| 20260505122005 | 49 | 360 | 5.0 | 11.0 | 0.00 | 0.04 | 0.00 | 81 | 1002.1 |
| 20260505121505 | 50 | 360 | 5.0 | 15.0 | 0.00 | 0.04 | 0.00 | 81 | 1002.0 |
| 20260505121005 | 50 | 358 | 5.0 | 11.0 | 0.00 | 0.04 | 0.00 | 80 | 1002.1 |
| 20260505120505 | 51 | 359 | 6.0 | 11.0 | 0.00 | 0.04 | 0.00 | 79 | 1001.8 |
| 20260505120005 | 52 | 360 | 6.0 | 15.0 | 0.00 | 0.04 | 0.00 | 79 | 1002.0 |
| 20260505115505 | 53 | 357 | 5.0 | 13.0 | 0.00 | 0.04 | 0.00 | 79 | 1001.9 |
| 20260505115005 | 54 | 350 | 4.0 | 12.0 | 0.00 | 0.04 | 0.00 | 79 | 1001.6 |
| 20260505114504 | 56 | 351 | 4.0 | 11.0 | 0.00 | 0.04 | 0.00 | 79 | 1001.1 |
| 20260505114004 | 57 | 350 | 3.0 | 12.0 | 0.00 | 0.04 | 0.00 | 80 | 1001.0 |
| 20260505113505 | 58 | 345 | 3.0 | 9.0 | 0.00 | 0.04 | 0.00 | 81 | 1000.7 |
| 20260505113005 | 58 | 354 | 5.0 | 11.0 | 0.00 | 0.04 | 0.00 | 82 | 1000.6 |
| 20260505112504 | 58 | 359 | 8.0 | 16.0 | 0.00 | 0.04 | 0.00 | 82 | 1000.4 |
| 20260505112005 | 58 | 360 | 6.0 | 23.0 | 0.00 | 0.04 | 0.00 | 82 | 1000.5 |
| 20260505111505 | 58 | 360 | 4.0 | 11.0 | 0.00 | 0.04 | 0.00 | 82 | 1000.3 |
| 20260505111004 | 58 | 357 | 6.0 | 20.0 | 0.00 | 0.04 | 0.00 | 82 | 1000.3 |
| 20260505110504 | 58 | 339 | 4.0 | 15.0 | 0.00 | 0.04 | 0.00 | 82 | 1000.1 |
| 20260505102004 | 59 | 330 | 4.0 | 13.0 | 0.00 | 0.04 | 0.00 | 81 | 999.8 |
| 20260505101504 | 59 | 348 | 4.0 | 15.0 | 0.00 | 0.04 | 0.00 | 81 | 999.9 |
| 20260505101004 | 59 | 359 | 4.0 | 7.0 | 0.00 | 0.04 | 0.00 | 81 | 999.9 |
| 20260505100504 | 59 | 355 | 4.0 | 16.0 | 0.00 | 0.04 | 0.00 | 81 | 999.9 |
| 20260505100004 | 59 | 339 | 4.0 | 12.0 | 0.00 | 0.04 | 0.00 | 81 | 999.9 |
| 20260505095505 | 59 | 324 | 4.0 | 12.0 | 0.00 | 0.04 | 0.00 | 81 | 999.8 |
| 20260505095025 | 59 | 310 | 5.0 | 16.0 | 0.00 | 0.04 | 0.00 | 81 | 999.7 |
| 20260505094505 | 59 | 295 | 4.0 | 13.0 | 0.00 | 0.04 | 0.00 | 81 | 999.7 |
| 20260505094005 | 59 | 312 | 4.0 | 11.0 | 0.00 | 0.04 | 0.00 | 81 | 999.7 |
| 20260505093525 | 59 | 344 | 3.0 | 11.0 | 0.00 | 0.04 | 0.00 | 80 | 999.6 |
| 20260505093004 | 60 | 356 | 3.0 | 12.0 | 0.00 | 0.04 | 0.00 | 80 | 999.7 |
| 20260505092504 | 60 | 343 | 3.0 | 9.0 | 0.00 | 0.04 | 0.00 | 80 | 999.6 |
| 20260505092026 | 60 | 339 | 3.0 | 9.0 | 0.00 | 0.04 | 0.00 | 80 | 999.3 |
| 20260505091525 | 60 | 332 | 4.0 | 15.0 | 0.00 | 0.04 | 0.00 | 79 | 999.3 |
| 20260505091005 | 60 | 326 | 4.0 | 15.0 | 0.00 | 0.04 | 0.00 | 79 | 999.3 |
| 20260505090504 | 60 | 342 | 3.0 | 12.0 | 0.00 | 0.04 | 0.00 | 79 | 999.1 |
| 20260505090005 | 60 | 352 | 3.0 | 12.0 | 0.00 | 0.04 | 0.00 | 79 | 999.3 |
| 20260505085504 | 60 | 333 | 2.0 | 8.0 | 0.00 | 0.04 | 0.00 | 79 | 999.2 |
| 20260505085005 | 60 | 281 | 3.0 | 13.0 | 0.00 | 0.04 | 0.00 | 79 | 999.1 |
| 20260505084526 | 60 | 279 | 4.0 | 13.0 | 0.00 | 0.04 | 0.00 | 79 | 999.1 |
| 20260505084004 | 60 | 289 | 3.0 | 9.0 | 0.00 | 0.04 | 0.00 | 79 | 998.9 |
| 20260505083525 | 60 | 289 | 3.0 | 9.0 | 0.00 | 0.04 | 0.00 | 79 | 998.9 |
| 20260505083005 | 60 | 298 | 2.0 | 4.0 | 0.00 | 0.04 | 0.00 | 79 | 998.9 |
| 20260505082504 | 61 | 306 | 3.0 | 12.0 | 0.00 | 0.04 | 0.00 | 78 | 998.7 |
| 20260505082025 | 61 | 296 | 2.0 | 7.0 | 0.00 | 0.04 | 0.00 | 78 | 998.6 |
| 20260505081505 | 61 | 297 | 3.0 | 9.0 | 0.00 | 0.04 | 0.00 | 78 | 998.7 |
| 20260505081004 | 61 | 291 | 4.0 | 11.0 | 0.00 | 0.04 | 0.00 | 77 | 998.5 |
| 20260505080504 | 61 | 287 | 5.0 | 11.0 | 0.00 | 0.04 | 0.00 | 78 | 998.4 |
| 20260505080004 | 61 | 305 | 4.0 | 20.0 | 0.00 | 0.04 | 0.00 | 78 | 998.5 |
| 20260505075504 | 61 | 332 | 4.0 | 15.0 | 0.00 | 0.04 | 0.00 | 77 | 998.7 |
| 20260505075004 | 61 | 352 | 4.0 | 9.0 | 0.00 | 0.04 | 0.00 | 77 | 998.5 |
| 20260505074504 | 61 | 354 | 4.0 | 19.0 | 0.00 | 0.04 | 0.00 | 78 | 998.4 |
| 20260505074005 | 61 | 355 | 3.0 | 8.0 | 0.00 | 0.04 | 0.00 | 77 | 998.5 |
| 20260505073504 | 61 | 358 | 3.0 | 15.0 | 0.00 | 0.04 | 0.00 | 77 | 998.5 |
| 20260505073004 | 62 | 341 | 4.0 | 11.0 | 0.00 | 0.04 | 0.00 | 77 | 998.6 |
| 20260505072504 | 62 | 271 | 3.0 | 12.0 | 0.00 | 0.04 | 0.00 | 77 | 998.5 |
| 20260505072004 | 62 | 245 | 2.0 | 7.0 | 0.00 | 0.04 | 0.00 | 75 | 998.4 |
| 20260505071504 | 62 | 290 | 2.0 | 9.0 | 0.00 | 0.04 | 0.00 | 75 | 998.5 |
| 20260505071004 | 62 | 326 | 2.0 | 11.0 | 0.00 | 0.04 | 0.00 | 75 | 998.5 |
| 20260505070504 | 62 | 337 | 3.0 | 9.0 | 0.00 | 0.04 | 0.00 | 74 | 998.6 |
| 20260505070005 | 62 | 296 | 3.0 | 8.0 | 0.00 | 0.04 | 0.00 | 74 | 998.6 |
| 20260505065504 | 62 | 308 | 4.0 | 12.0 | 0.00 | 0.04 | 0.00 | 74 | 998.8 |
| 20260505065004 | 62 | 344 | 4.0 | 15.0 | 0.00 | 0.04 | 0.00 | 74 | 998.6 |
| 20260505064504 | 62 | 347 | 4.0 | 8.0 | 0.00 | 0.04 | 0.00 | 74 | 998.5 |
| 20260505064004 | 62 | 342 | 4.0 | 11.0 | 0.00 | 0.04 | 0.00 | 74 | 998.6 |
| 20260505063504 | 62 | 345 | 4.0 | 13.0 | 0.00 | 0.04 | 0.00 | 75 | 998.8 |
| 20260505063004 | 62 | 347 | 4.0 | 17.0 | 0.00 | 0.04 | 0.00 | 75 | 998.9 |
| 20260505062505 | 62 | 351 | 5.0 | 12.0 | 0.00 | 0.04 | 0.00 | 75 | 999.1 |
| 20260505062004 | 62 | 358 | 4.0 | 15.0 | 0.00 | 0.04 | 0.00 | 77 | 999.1 |
| 20260505061504 | 61 | 360 | 4.0 | 17.0 | 0.00 | 0.04 | 0.00 | 77 | 999.1 |
| 20260505061004 | 61 | 360 | 4.0 | 16.0 | 0.00 | 0.04 | 0.00 | 77 | 999.2 |
| 20260505060504 | 61 | 360 | 4.0 | 13.0 | 0.00 | 0.04 | 0.00 | 77 | 999.3 |
| 20260505060004 | 61 | 359 | 3.0 | 11.0 | 0.00 | 0.04 | 0.00 | 77 | 999.4 |
| 20260505055504 | 61 | 314 | 3.0 | 11.0 | 0.00 | 0.04 | 0.00 | 77 | 999.3 |
| 20260505055026 | 61 | 243 | 4.0 | 9.0 | 0.00 | 0.04 | 0.00 | 78 | 999.4 |
| 20260505054504 | 61 | 284 | 4.0 | 11.0 | 0.00 | 0.04 | 0.00 | 78 | 999.3 |
| 20260505054005 | 60 | 266 | 4.0 | 11.0 | 0.00 | 0.04 | 0.00 | 78 | 999.4 |
| 20260505053525 | 60 | 213 | 4.0 | 12.0 | 0.00 | 0.04 | 0.00 | 78 | 999.5 |
| 20260505053004 | 60 | 201 | 4.0 | 13.0 | 0.00 | 0.04 | 0.00 | 78 | 999.6 |
| 20260505052504 | 60 | 210 | 4.0 | 11.0 | 0.00 | 0.04 | 0.00 | 78 | 999.6 |
| 20260505052004 | 60 | 223 | 4.0 | 11.0 | 0.00 | 0.04 | 0.00 | 78 | 999.7 |
| 20260505051504 | 61 | 279 | 4.0 | 12.0 | 0.00 | 0.04 | 0.00 | 78 | 999.6 |
| 20260505051004 | 61 | 354 | 5.0 | 13.0 | 0.00 | 0.04 | 0.00 | 78 | 999.6 |
| 20260505050504 | 61 | 360 | 5.0 | 12.0 | 0.00 | 0.04 | 0.00 | 78 | 999.7 |
| 20260505041504 | 61 | 359 | 3.0 | 8.0 | 0.00 | 0.04 | 0.00 | 79 | 999.8 |
| 20260505041025 | 61 | 360 | 4.0 | 11.0 | 0.00 | 0.04 | 0.00 | 78 | 999.8 |
| 20260505040504 | 61 | 360 | 4.0 | 12.0 | 0.00 | 0.04 | 0.00 | 78 | 999.8 |
| 20260505040005 | 61 | 358 | 2.0 | 7.0 | 0.00 | 0.04 | 0.00 | 77 | 999.8 |
| 20260505035504 | 61 | 353 | 3.0 | 7.0 | 0.00 | 0.04 | 0.04 | 77 | 999.9 |
| 20260505035004 | 62 | 356 | 3.0 | 11.0 | 0.00 | 0.04 | 0.04 | 77 | 999.9 |
| 20260505034504 | 62 | 360 | 2.0 | 7.0 | 0.00 | 0.04 | 0.04 | 75 | 1000.0 |
| 20260505034004 | 62 | 360 | 1.0 | 5.0 | 0.00 | 0.04 | 0.04 | 75 | 1000.1 |
| 20260505033504 | 62 | 360 | 1.0 | 7.0 | 0.00 | 0.04 | 0.04 | 75 | 1000.0 |
| 20260505033004 | 62 | 360 | 1.0 | 5.0 | 0.00 | 0.04 | 0.04 | 74 | 1000.1 |
| 20260505032504 | 62 | 360 | 2.0 | 8.0 | 0.00 | 0.04 | 0.04 | 74 | 1000.2 |
| 20260505032004 | 62 | 360 | 2.0 | 4.0 | 0.00 | 0.04 | 0.04 | 74 | 1000.2 |
| 20260505031504 | 62 | 360 | 3.0 | 8.0 | 0.00 | 0.04 | 0.04 | 74 | 1000.2 |
| 20260505031004 | 62 | 360 | 4.0 | 13.0 | 0.00 | 0.04 | 0.04 | 74 | 1000.3 |
| 20260505030504 | 62 | 360 | 4.0 | 15.0 | 0.00 | 0.04 | 0.04 | 73 | 1000.4 |
| 20260505030004 | 62 | 360 | 5.0 | 15.0 | 0.02 | 0.04 | 0.04 | 74 | 1000.7 |
| 20260505025505 | 62 | 360 | 5.0 | 15.0 | 0.02 | 0.04 | 0.04 | 74 | 1000.6 |
| 20260505025004 | 62 | 360 | 4.0 | 16.0 | 0.02 | 0.04 | 0.04 | 74 | 1000.7 |
| 20260505024504 | 62 | 360 | 4.0 | 19.0 | 0.02 | 0.04 | 0.04 | 75 | 1000.8 |
| 20260505024004 | 61 | 360 | 4.0 | 16.0 | 0.03 | 0.04 | 0.04 | 77 | 1000.6 |
| 20260505023504 | 61 | 360 | 3.0 | 13.0 | 0.04 | 0.04 | 0.04 | 79 | 1000.5 |
| 20260505023005 | 61 | 360 | 4.0 | 13.0 | 0.04 | 0.04 | 0.04 | 79 | 1000.7 |
| 20260505022504 | 61 | 360 | 2.0 | 13.0 | 0.04 | 0.04 | 0.04 | 80 | 1000.7 |
| 20260505022005 | 61 | 360 | 1.0 | 7.0 | 0.04 | 0.04 | 0.04 | 81 | 1000.8 |
| 20260505021504 | 62 | 360 | 3.0 | 4.0 | 0.04 | 0.04 | 0.04 | 81 | 1000.9 |
| 20260505021004 | 62 | 360 | 4.0 | 11.0 | 0.04 | 0.04 | 0.04 | 80 | 1000.9 |
| 20260505020504 | 62 | 360 | 5.0 | 11.0 | 0.04 | 0.04 | 0.04 | 80 | 1000.9 |
| 20260505020004 | 62 | 360 | 5.0 | 13.0 | 0.02 | 0.02 | 0.02 | 79 | 1000.9 |
| 20260505015504 | 62 | 360 | 4.0 | 13.0 | 0.02 | 0.02 | 0.02 | 78 | 1000.8 |
| 20260505015004 | 62 | 360 | 3.0 | 11.0 | 0.02 | 0.02 | 0.02 | 78 | 1000.8 |
| 20260505014504 | 62 | 360 | 3.0 | 7.0 | 0.02 | 0.02 | 0.02 | 77 | 1000.7 |